Location: Bathurst
(33.4193°S, 149.5775°E)
Time: 10:49:37
(UTC+10:00)

Vanguard 1 Rocket - Pass Details

Date: 14 June 2021
Orbit: 650 x 4226 km, 34.3° (Epoch: 02 August)

Event Time Altitude Azimuth Distance (km) Brightness Sun altitude
Rises 06:10:50 0° 345° (NNW) 8,442 12.4 -10.8°
Reaches altitude 10° 06:20:07 10° 0° (N) 7,188 12.3 -9.0°
Maximum altitude 06:33:46 19° 36° (NE) 5,625 12.4 -6.4°
Drops below altitude 10° 06:44:06 10° 73° (ENE) 5,397 13.2 -4.4°
Sets 06:49:15 0° 90° (E) 5,812 12.9 -3.5°
